SCP
0 0 0 0 0 0 0 0 0 0 0 0 0 0 0 0 0 0 0 0 0 0 0 0 0 0 0 0 0 0 0 0 0 0 0 0 0 0 0 0 0 0 0 0
1 1 1 0 0 0 0 0 0 0 0 0 0 0 0 0 0 0 0 0 0 0 0 0 0 0 0 0 0 0 0 0 0 0 0 0 0 0 0 0 0 0 0 0
1 1 1 1 1 1 0 0 0 0 0 0 0 0 0 0 0 0 0 0 0 0 0 0 0 0 0 0 0 0 0 0 0 0 0 0 0 0 0 0 0 0 0 0
1 1 1 1 1 1 0 0 0 0 0 0 0 0 0 0 0 0 0 0 0 0 0 0 0 0 0 0 0 0 0 0 0 0 0 0 0 0 0 0 0 0 0 0
1 1 1 1 1 1 0 0 0 0 0 0 0 0 0 0 0 0 0 0 0 0 0 0 0 0 0 0 0 0 0 0 0 0 0 0 0 0 0 0 0 0 0 0
1 1 1 1 1 1 1 0 0 0 0 0 0 0 0 0 0 0 0 0 0 0 0 0 0 0 0 0 0 0 0 0 0 0 0 0 0 0 0 0 0 0 0 0
1 1 1 1 1 1 1 0 0 0 0 0 0 0 0 0 0 0 0 0 0 0 0 0 0 0 0 0 0 0 0 0 0 0 0 0 0 0 0 0 0 0 0 0
0 1 1 1 1 1 1 0 0 0 0 0 0 0 0 0 0 0 0 0 0 0 0 0 0 0 0 0 0 0 0 0 0 0 0 0 0 0 0 0 0 0 0 0
0 0 0 0 0 0 0 0 0 0 0 0 0 0 0 0 0 0 0 0 0 0 0 0 0 0 0 0 0 0 0 0 0 0 0 0 0 0 0 0 0 0 0 0
0 0 0 0 0 0 0 0 0 0 0 0 0 0 0 0 0 0 0 0 0 0 0 0 0 0 0 0 0 0 0 0 0 0 0 0 0 0 0 0 0 0 0 0
0 0 0 0 0 0 0 0 0 0 0 0 0 0 0 0 0 0 0 0 0 0 0 0 0 0 0 0 0 0 0 0 0 0 0 0 0 0 0 0 0 0 0 0
0 0 0 0 0 0 0 0 0 0 0 0 0 0 0 0 0 0 0 0 0 0 0 0 0 0 0 0 0 0 0 0 0 0 0 0 0 0 0 0 0 0 0 0
0 0 0 0 0 0 0 0 0 0 0 0 0 0 0 0 0 0 0 0 0 0 0 0 0 0 0 0 0 0 0 0 1 1 1 1 0 0 0 0 0 0 0 0
0 0 0 0 0 0 0 0 0 0 0 0 0 0 0 0 0 0 0 0 0 0 0 0 0 0 0 0 1 1 1 1 1 1 1 1 1 0 0 0 0 0 0 0
0 0 0 0 0 0 0 0 0 0 0 0 0 0 0 0 0 0 0 0 0 0 0 0 0 0 0 1 1 1 1 1 1 1 1 1 1 1 1 0 0 0 0 0
0 0 0 0 0 0 0 0 0 0 0 0 0 0 0 0 0 0 0 0 0 0 0 0 0 0 0 1 1 1 1 1 1 1 1 1 1 1 1 1 1 0 0 0
0 0 0 0 0 0 0 0 0 0 0 0 0 0 0 0 0 0 0 0 0 0 0 0 0 0 0 1 1 1 1 1 1 1 1 1 1 1 1 1 1 0 0 0
0 0 0 0 0 0 0 0 0 0 0 0 0 0 0 0 0 0 0 0 0 0 0 0 0 0 0 0 0 0 0 0 1 1 1 1 1 1 1 1 0 0 0 0
0 0 0 0 0 0 0 0 0 0 0 0 0 0 0 0 0 0 0 0 0 0 0 0 0 0 0 0 0 0 0 0 0 0 0 0 0 0 0 0 0 0 0 0
0 0 0 0 0 0 0 0 0 0 0 0 0 0 0 0 0 0 0 0 0 0 0 0 0 0 0 0 0 0 0 0 0 0 0 0 0 0 0 0 0 0 0 0
0 0 0 0 0 0 0 0 0 0 0 0 0 0 0 0 0 0 0 0 0 0 0 0 0 0 0 0 0 0 0 0 0 0 0 0 0 0 0 0 0 0 0 0
0 0 0 0 0 0 0 0 0 0 0 0 0 0 0 0 0 0 0 0 0 0 0 0 0 0 0 0 0 0 0 0 0 0 0 0 0 0 0 0 0 0 0 0
0 0 0 0 0 0 0 0 0 0 0 0 0 0 0 0 0 0 0 0 0 0 0 0 0 0 0 0 0 0 0 0 0 0 0 0 0 0 0 0 0 0 0 0
0 0 0 0 0 0 0 0 0 0 0 0 0 0 0 0 0 0 0 0 0 0 0 0 0 0 0 0 0 0 0 0 0 0 0 0 0 0 0 0 0 0 0 0
0 0 0 0 0 0 0 0 0 0 0 0 0 0 0 0 0 0 0 0 0 0 0 0 0 0 0 0 0 0 0 0 0 0 0 0 0 0 0 0 0 0 0 0
0 0 0 0 0 0 0 0 0 0 0 0 0 0 0 0 0 0 0 0 0 0 0 0 0 0 0 0 0 0 0 0 0 0 0 0 0 0 0 0 0 0 0 0
Wind_Speed
3 4 2 5 5 4 4 3 4 4 3 4 5 6 6 5 5 6 6 6 7 7 5 3 3 3 3 3 4 4 4 3 3 2 2 1 1 1 1 2 2 2 2 2
4 2 5 4 4 3 3 3 3 3 1 3 4 6 5 6 8 9 9 9 9 6 3 3 3 3 4 4 4 4 4 4 3 2 2 1 1 1 1 1 2 2 2 2
4 4 2 3 3 3 3 5 4 3 1 1 0 4 4 4 4 5 7 7 7 9 8 6 5 4 4 5 5 5 4 4 3 3 3 3 2 2 2 2 2 2 2 2
3 3 2 2 3 5 4 4 4 3 2 2 1 4 7 4 4 6 8 7 8 8 7 7 6 5 6 5 4 4 4 4 3 4 4 4 3 2 1 0 0 1 2 2
3 1 2 3 3 5 4 1 2 1 3 0 1 2 8 2 5 8 9 9 9 9 8 8 8 7 6 5 5 4 4 3 3 3 4 4 2 2 1 1 1 1 2 2
3 1 2 3 1 3 3 5 5 4 4 1 3 4 7 4 7 6 7 9 9 8 8 7 5 5 4 4 4 4 4 3 3 3 3 4 4 3 3 1 1 1 1 1
3 2 1 1 2 2 4 5 3 4 3 5 2 3 8 6 5 6 7 8 9 8 8 7 6 6 5 5 5 5 5 4 3 3 3 4 4 4 4 3 2 1 0 0
1 4 2 1 4 4 3 7 6 4 4 4 2 5 8 5 4 3 4 5 6 7 7 7 8 7 7 6 6 6 6 4 4 4 3 3 4 3 2 3 2 2 2 1
4 5 2 1 2 7 4 3 5 5 2 2 5 6 8 2 2 1 1 4 6 7 7 7 6 6 6 6 6 6 6 5 5 4 4 3 3 3 3 2 2 1 1 1
5 3 3 1 3 3 4 7 5 4 3 3 5 4 5 5 4 2 2 4 5 5 5 5 5 5 5 5 5 5 5 5 4 4 4 3 3 3 3 3 2 1 1 1
2 3 2 1 3 4 3 3 4 4 4 4 3 7 5 5 5 5 5 5 6 6 6 6 5 4 4 4 4 4 5 4 4 4 4 3 3 3 3 3 2 2 1 1
1 4 2 4 3 2 4 5 7 5 4 4 3 8 4 3 4 4 4 4 4 5 5 5 5 4 4 4 4 4 5 4 5 4 4 4 3 3 3 2 2 2 2 1
2 4 2 5 4 1 1 3 4 5 4 4 4 8 4 2 2 2 3 4 4 4 4 4 4 4 4 4 4 4 4 5 4 4 4 4 3 3 3 3 2 2 2 2
4 3 5 6 5 3 2 2 4 5 4 5 7 7 6 5 3 2 2 3 4 4 5 5 4 4 4 4 4 4 4 4 4 4 4 4 4 4 3 3 2 2 2 2
4 2 3 5 5 2 4 4 4 6 7 8 8 8 9 7 6 4 3 3 4 4 5 6 6 5 4 4 4 4 4 4 4 5 5 5 4 3 2 2 2 2 2 2
2 2 1 3 2 2 4 5 5 6 5 6 5 8 7 5 2 2 3 4 5 6 6 6 5 5 5 5 5 4 4 4 4 5 4 4 3 3 3 3 2 2 2 2
0 2 1 3 4 3 5 5 6 5 5 6 8 9 4 2 3 4 4 5 6 6 6 6 6 6 6 6 6 6 5 4 4 4 4 4 4 3 3 3 3 3 2 2
4 3 2 1 1 5 6 2 3 4 4 4 4 4 3 4 3 2 2 4 5 4 4 5 5 4 4 4 4 4 4 4 4 4 4 3 4 4 3 3 3 3 2 2
6 6 3 2 2 6 5 2 2 3 4 2 3 3 1 1 2 3 1 3 4 4 4 4 4 3 3 4 4 4 4 4 4 4 4 4 4 4 4 4 3 2 2 2
2 3 4 3 3 5 4 4 3 1 4 3 1 2 0 2 1 4 2 2 2 1 2 3 3 3 3 3 4 5 4 4 4 4 4 3 4 4 4 4 3 2 2 2
1 1 3 4 4 6 5 5 1 2 5 4 1 1 2 3 4 3 0 1 2 2 2 3 4 4 3 4 5 5 4 4 4 3 3 3 3 3 3 2 2 2 2 2
3 3 3 3 3 7 3 2 2 4 3 2 1 1 1 2 2 1 0 1 2 3 3 3 4 3 2 4 5 4 3 3 2 3 3 2 2 2 2 3 2 2 3 2
3 5 4 6 6 4 2 3 3 2 2 3 2 2 1 1 1 1 0 1 1 2 2 3 4 3 2 3 4 4 3 2 3 3 2 2 2 1 2 3 3 2 2 2
3 1 2 4 6 4 4 4 4 3 3 3 2 2 1 1 1 1 1 1 1 1 2 2 4 3 2 2 2 3 2 3 3 3 2 2 2 2 1 2 2 2 2 2
4 2 2 5 7 6 5 4 4 4 3 4 3 2 1 1 2 2 2 2 2 2 2 2 3 4 3 3 2 2 2 3 3 3 2 2 2 3 2 2 2 3 3 4
5 6 6 7 6 5 6 5 5 4 5 4 4 3 2 2 3 2 2 2 3 3 2 2 2 3 2 2 2 2 3 4 4 3 2 2 2 2 2 2 0 1 2 3
Wind_Direction
59 85 186 207 193 187 175 191 235 250 213 177 218 243 242 198 194 200 202 203 207 215 215 188 182 173 160 151 147 149 142 140 129 110 106 94 71 37 31 34 36 43 61 76
51 242 228 189 176 177 179 210 243 278 218 188 226 257 249 204 205 204 200 203 206 207 194 189 183 174 172 171 165 158 158 157 157 143 131 122 117 93 64 29 34 31 50 67
189 232 178 151 170 175 207 201 215 226 8 25 64 298 264 233 211 205 204 205 202 200 195 192 188 188 178 178 176 173 173 166 159 132 108 87 64 46 34 22 11 4 27 51
230 252 160 165 197 174 237 226 199 184 143 263 188 267 272 234 224 215 212 205 206 206 196 191 190 189 190 190 174 166 167 163 153 139 138 140 142 151 197 207 327 5 28 45
253 213 164 197 217 182 212 160 145 161 161 302 277 225 280 250 236 233 217 209 208 203 195 195 196 195 190 178 165 164 157 156 150 147 151 145 135 144 122 87 65 35 23 32
246 249 192 205 201 158 135 74 60 52 78 273 231 198 275 237 224 232 214 206 203 197 192 196 193 182 173 161 156 155 154 160 156 151 150 153 151 143 128 119 111 40 19 13
329 320 304 159 111 56 94 89 32 358 6 256 251 210 253 257 241 226 217 205 195 187 184 185 181 183 177 169 168 166 161 165 163 156 159 167 163 157 159 166 169 155 79 315
194 282 262 176 169 168 163 141 156 200 231 278 289 239 256 267 278 248 209 187 177 180 187 188 187 185 182 179 174 171 172 174 171 170 175 165 159 161 167 171 173 184 197 218
185 248 284 217 170 140 136 161 161 136 173 274 279 287 299 298 331 338 159 163 180 186 189 189 185 181 180 179 181 179 176 178 181 181 170 159 164 169 173 175 175 175 187 187
170 224 286 291 81 52 135 143 107 123 161 263 290 281 266 289 279 261 215 198 198 188 186 183 179 180 178 178 177 171 174 180 180 176 176 173 178 178 165 154 165 169 174 145
139 167 306 29 175 182 114 113 119 127 154 163 262 273 240 243 246 231 228 210 196 188 185 183 179 175 167 162 166 171 173 170 173 177 176 170 175 170 158 162 175 174 166 157
122 125 243 262 257 191 168 172 153 159 208 179 190 267 281 257 251 224 225 211 189 179 173 171 166 157 157 164 172 174 173 177 184 180 174 176 168 159 162 174 180 167 167 172
115 107 45 340 341 11 166 174 166 140 135 165 184 260 308 344 327 224 208 199 176 165 158 155 157 167 174 177 177 178 181 182 175 170 170 168 168 171 181 189 181 172 172 164
109 128 174 208 230 228 242 216 173 150 173 208 221 246 285 296 284 262 215 191 172 167 165 168 177 185 184 181 178 179 184 178 170 166 168 178 187 189 191 186 173 176 175 165
94 167 231 251 260 237 237 239 205 198 199 206 232 231 250 252 241 233 209 176 162 171 178 185 190 189 183 180 180 180 182 178 174 171 177 189 185 175 167 169 172 169 169 172
61 166 246 294 287 254 266 262 236 228 223 226 242 259 253 254 224 212 201 182 187 195 198 197 192 186 188 189 187 182 183 180 169 174 186 179 165 166 171 175 169 163 167 159
121 142 137 270 295 330 277 246 223 225 219 200 226 248 253 232 218 218 217 204 203 204 201 196 194 192 193 194 185 186 185 167 162 174 179 175 171 175 184 175 166 178 181 166
173 155 161 231 357 244 249 237 213 226 250 236 246 263 242 225 235 230 204 200 208 203 198 197 192 189 187 176 170 164 153 156 163 168 176 180 175 177 174 171 183 192 184 182
186 168 153 155 231 271 291 294 220 220 271 267 245 272 299 3 32 333 265 196 203 201 195 189 183 174 162 160 159 148 146 148 159 179 188 188 180 179 179 188 196 192 178 189
138 155 146 155 202 241 256 286 287 160 283 314 267 240 234 79 60 274 274 185 189 172 160 152 138 128 140 151 146 146 157 162 185 198 195 186 181 185 191 197 196 190 184 201
97 117 165 189 225 260 275 296 49 156 260 310 284 217 167 202 227 252 267 165 154 143 133 129 129 138 155 148 143 152 167 193 203 187 175 176 180 187 188 183 186 172 171 169
189 175 191 169 209 254 299 54 155 232 280 310 305 268 220 246 296 320 149 153 135 123 120 128 134 142 144 144 146 157 190 209 179 160 161 173 178 184 169 160 167 163 164 170
213 201 196 196 217 248 251 234 252 242 273 287 281 282 213 249 285 286 245 171 150 139 140 143 147 146 146 160 160 168 196 173 154 146 160 170 166 169 165 167 171 167 168 178
270 244 216 261 270 266 262 268 288 275 265 276 272 277 208 218 253 259 232 189 155 145 151 149 146 153 179 193 188 183 178 161 155 162 172 169 161 156 151 162 172 175 183 191
243 222 249 266 281 302 296 287 298 307 310 310 310 290 239 216 251 233 221 210 190 176 168 165 170 181 199 193 193 188 173 158 160 171 178 173 171 168 167 176 191 196 212 202
220 208 215 242 247 243 266 279 288 289 290 286 283 290 291 233 234 228 218 209 188 181 178 177 186 193 201 190 198 204 187 170 165 170 179 179 175 174 172 168 198 252 230 231